Regional Weather Roundup
Issued by NWS Newport/Morehead, NC

Current Version | Previous Version | Text Only | Print | Product List | Glossary On
Versions: 1 2 3 4 5 6 7 8 9 10 11 12 13 14 15 16 17 18 19 20 21 22 23 24 25 26 27 28 29 30 31 32 33 34 35 36 37 38 39 40 41 42 43 44 45 46 47 48 49 50
000
ASUS42 KMHX 061712
RWRMHX
WEATHER ROUNDUP FOR EASTERN NORTH CAROLINA
NATIONAL WEATHER SERVICE NEWPORT/MOREHEAD CITY NC
1200 PM EST FRI MAR 06 2015

NOTE: "FAIR" INDICATES FEW OR NO CLOUDS BELOW 12,000 FEET
WITH NO SIGNIFICANT WEATHER AND/OR OBSTRUCTIONS TO VISIBILITY

NCZ015>017-031-032-045>047-102-103-061800-
NORTH COAST

CITY           SKY/WX    TMP DP  RH WIND       PRES   REMARKS
EDENTON        SUNNY     32  20  60 NE9G17    30.51F
ELIZABETH CITY SUNNY     30  17  58 NE15      30.52S WCI  19
KITTY HAWK     PTSUNNY   30  23  75 N15G24    30.47F WCI  19
MANTEO         CLOUDY    29  22  75 N18G26    30.49F WCI  16

$$

NCZ045>047-081-094-103-104-061800-
CENTRAL COAST

CITY           SKY/WX    TMP DP  RH WIND       PRES   REMARKS
FRISCO         CLOUDY    32  25  75 N15G29    30.42F
SWANQUARTER      N/A     34 N/A N/A VRB14G22  30.44S

$$

NCZ095-097-098-100-101-061800-
SOUTHERN COAST

CITY           SKY/WX    TMP DP  RH WIND       PRES   REMARKS
BEAUFORT       CLOUDY    34  23  64 N18G28    30.44F
CEDAR ISLAND     N/A     32 N/A N/A N28       30.50S WCI  18
JACKSONVILLE   CLOUDY    37  22  54 N15G21    30.45F
PINEY ISLAND     N/A    N/A N/A N/A MISG      30.45F
WILMINGTON     CLOUDY    37  23  56 N14G20    30.45F


$$

NCZ011>013-027>030-043-044-078>080-089-090>093-098-061800-
COASTAL PLAIN

CITY           SKY/WX    TMP DP  RH WIND       PRES   REMARKS
AHOSKIE        SUNNY     28  14  55 N8        30.54S
CLINTON        SUNNY     34  15  46 N8G16     30.49F
ELIZABETHTOWN  SUNNY     37  14  39 N6        30.47F
GOLDSBORO      SUNNY     32  23  68 N14G20    30.48F
GREENVILLE     SUNNY     32  18  55 N12       30.51F
HAVELOCK       PTSUNNY   37  20  50 N13G25    30.47S
KENANSVILLE    SUNNY     33  19  57 N12G18    30.49F
KINSTON        SUNNY     34  19  55 N13       30.50F
NEW BERN       SUNNY     36  21  54 N13G20    30.48F
RICHLANDS      SUNNY     36  19  51 N8G20     30.48S
ROCKY MOUNT    SUNNY     31  14  49 N9        30.53S
WASHINGTON     SUNNY     31  20  62 N7        30.50F
WHITEVILLE     CLOUDY    38  15  39 N7        30.45F

$$

AMZ130-135-150-152-154-156-158-170-250-252-270-ANZ085-086-088-633-658-670-061800-
MARINE OBSERVATIONS

STATION/POSITION TIME  TEMP    WIND        PRES    WAVE   SWELL
                       AIR SEA DIR/SP/G            HT/PER HT/PER
                 (UTC) (F)     (DEG/KT/KT) (MB)    (FT/S) (FT/S)
CHESAPEAKE LIGHT 1600   22      10/ 19/ 21 1034.1
64 E VA BEACH    1650   35 50  360/ 21/ 27 1030.3    8/ 8
DUCK             1600   25 35   10/ 17/ 24 1031.9
2 E DUCK         1611      35                N/A     8/ 8   2/11
10 NE DUCK       1622      37                N/A     8/ 8   2/12
OREGON INLET     1600   30 38  350/ 17/ 26 1032.0
HATTERAS CG      1600   31 44   10/ 27/ 33 1030.9
CAPE LOOKOUT     1700           10/ 21/ 26 1030.2
BEAUFORT LAB     1600   32 47   20/ 18/ 26 1030.3
27 SE WRIGHTSVLE NOT AVBL
5 SE WRIGHTSVLE  NOT AVBL
225 S CAPE HAT   1650   65 72   40/ 21/ 25 1022.5    9/11   5/11
41 SE CHARLESTON 1650   45 66   20/ 25/ 33 1027.3   10/ 8   5/16

$$


USA.gov is the U.S. government's official web portal to all federal, state and local government web resources and services.